Location: Sebastopol
(38.4021°N, 122.8239°W)
Time: 15:09:33
(UTC+00:00)

Cosmos 1697 Rocket - Pass Details

Date: 29 October 2020
Orbit: 831 x 845 km, 71.0° (Epoch: 01 December)

Event Time Altitude Azimuth Distance (km) Brightness Sun altitude
Exits shadow 12:31:56 32° 336° (NNW) 1,404 3.6 -24.7°
Maximum altitude 12:34:40 87° 251° (WSW) 850 2.6 -24.1°
Drops below altitude 10° 12:40:19 10° 161° (SSE) 2,456 5.3 -23.0°
Sets 12:42:45 0° 161° (SSE) 3,387 6.1 -22.5°
